Home > Weather > Reston > Past weeks

Flag for USA Past Weather in Reston, Virginia, USA — Yesterday and Last 2 Weeks

Now
64 °F

Clear.


Feels Like: 64 °F
Forecast: 63 / 84 °F
Wind: No wind

Location: Washington-Dulles International Airport

Current Time: Jun 26, 2016 at 2:40:11 AM

Latest Report: Jun 26, 2016 at 1:52 AM


Visibility: 10 mi

Pressure: 30.20 "Hg

Humidity: 87%

Dew Point: 60 °F

Location of RestonLocation

Past Weather in Reston — Graph

°F

Reston Temperature Yesterday

Maximum temperature yesterday: 83 °F (at 3:52 PM)
Minimum temperature yesterday: 67 °F (at 11:52 PM)
Average temperature yesterday: 75 °F

High & Low Weather Summary for the Past Weeks

 TemperatureHumidityPressure
High94 °F (Jun 11, 4:52 PM)97% (Jun 17, 3:52 AM)30.36 "Hg (Jun 17, 3:52 AM)
Low57 °F (Jun 19, 5:52 AM)14% (Jun 12, 3:52 PM)29.64 "Hg (Jun 16, 5:52 PM)
Average74 °F63%29.97 "Hg
* Reported Jun 11 12:52 AM — Jun 26 12:52 AM, Reston, Weather by CustomWeather, © 2016

Note: Actual official high and low records may vary slightly from our data, if they occured in-between our weather recording intervals... More about our weather records

Advertising

Reston Weather History for the Previous 24 Hours

Scroll right to see more
 ConditionsComfort  
Time TempWeatherWind HumidityBarometerVisibility
12:52 AM
Sun, Jun 26
66 °FClear.No wind78%30.19 "Hg10 mi
11:52 PM
Sat, Jun 25
67 °FClear.No wind76%30.20 "Hg10 mi
10:52 PM72 °FClear.5 mph61%30.19 "Hg10 mi
9:52 PM72 °FClear.5 mph64%30.19 "Hg10 mi
8:52 PM74 °FSunny.5 mph60%30.18 "Hg10 mi
7:52 PM78 °FPassing clouds.7 mph50%30.16 "Hg10 mi
6:52 PM81 °FPassing clouds.7 mph41%30.16 "Hg10 mi
5:52 PM82 °FPassing clouds.No wind40%30.16 "Hg10 mi
4:52 PM82 °FPassing clouds.6 mph44%30.16 "Hg10 mi
3:52 PM83 °FPassing clouds.6 mph43%30.17 "Hg10 mi
2:52 PM81 °FScattered clouds.5 mph51%30.18 "Hg10 mi
1:52 PM78 °FScattered clouds.6 mph52%30.17 "Hg10 mi
12:52 PM79 °FPartly sunny.7 mph52%30.18 "Hg10 mi
11:52 AM78 °FPartly sunny.6 mph62%30.19 "Hg10 mi
10:52 AM76 °FPartly sunny.5 mph69%30.19 "Hg10 mi
9:52 AM73 °FBroken clouds.6 mph76%30.18 "Hg10 mi
8:52 AM72 °FOvercast.5 mph78%30.17 "Hg10 mi
7:52 AM70 °FMore clouds than sun.6 mph84%30.15 "Hg10 mi
6:52 AM70 °FOvercast.8 mph84%30.13 "Hg10 mi
5:52 AM70 °FOvercast.5 mph81%30.11 "Hg10 mi
4:52 AM70 °FOvercast.7 mph81%30.10 "Hg10 mi
3:52 AM70 °FOvercast.8 mph84%30.09 "Hg10 mi
2:52 AM70 °FOvercast.8 mph87%30.08 "Hg10 mi
Weather by CustomWeather, © 2016

See weather overviewHow to use our weather pages